TimeCDT,TemperatureF,Dew PointF,Humidity,Sea Level PressureIn,VisibilityMPH,Wind Direction,Wind SpeedMPH,Gust SpeedMPH,PrecipitationIn,Events,Conditions,WindDirDegrees,DateUTC
12:53 AM,73.0,69.1,87,30.00,9.0,South,8.1,-,N/A,,Mostly Cloudy,190,2013-05-18 05:53:00
1:00 AM,73.4,69.8,88,30.01,9.0,South,8.1,-,N/A,,Overcast,180,2013-05-18 06:00:00
1:38 AM,73.4,69.8,88,30.01,8.0,South,8.1,-,N/A,,Overcast,190,2013-05-18 06:38:00
1:53 AM,72.0,70.0,93,29.99,7.0,South,6.9,-,N/A,,Overcast,180,2013-05-18 06:53:00
2:53 AM,72.0,70.0,93,29.98,7.0,South,6.9,-,N/A,,Overcast,190,2013-05-18 07:53:00
3:53 AM,72.0,70.0,93,29.98,6.0,South,9.2,-,N/A,,Overcast,190,2013-05-18 08:53:00
4:28 AM,71.6,69.8,94,30.00,6.0,South,4.6,-,N/A,,Overcast,190,2013-05-18 09:28:00
4:53 AM,72.0,70.0,93,29.99,6.0,South,3.5,-,N/A,,Overcast,180,2013-05-18 09:53:00
5:00 AM,71.6,69.8,94,30.00,6.0,South,3.5,-,N/A,,Overcast,180,2013-05-18 10:00:00
5:53 AM,72.0,70.0,93,30.00,6.0,South,6.9,-,N/A,,Overcast,190,2013-05-18 10:53:00
6:34 AM,73.4,69.8,88,30.03,5.0,South,5.8,-,N/A,,Overcast,190,2013-05-18 11:34:00
6:43 AM,73.4,69.8,88,30.03,5.0,South,4.6,-,N/A,,Overcast,190,2013-05-18 11:43:00
6:53 AM,73.0,70.0,90,30.01,5.0,South,6.9,-,N/A,,Overcast,190,2013-05-18 11:53:00
7:53 AM,73.9,71.1,91,30.05,5.0,SSW,4.6,-,N/A,,Overcast,200,2013-05-18 12:53:00
8:18 AM,75.2,71.6,89,30.07,5.0,South,5.8,-,N/A,,Overcast,190,2013-05-18 13:18:00
8:53 AM,75.9,71.1,85,30.06,8.0,SSW,4.6,-,N/A,,Overcast,200,2013-05-18 13:53:00
9:53 AM,78.1,69.1,74,30.05,9.0,WSW,11.5,-,N/A,,Mostly Cloudy,240,2013-05-18 14:53:00
10:27 AM,80.6,69.8,70,30.07,10.0,SSW,8.1,-,N/A,,Scattered Clouds,200,2013-05-18 15:27:00
10:53 AM,81.0,69.1,67,30.05,10.0,SSW,10.4,-,N/A,,Partly Cloudy,200,2013-05-18 15:53:00
11:06 AM,80.6,69.8,70,30.07,10.0,SW,9.2,-,N/A,,Mostly Cloudy,230,2013-05-18 16:06:00
11:32 AM,82.4,69.8,66,30.07,10.0,SSW,10.4,-,N/A,,Scattered Clouds,200,2013-05-18 16:32:00
11:45 AM,80.6,69.8,70,30.07,10.0,SSW,10.4,-,N/A,,Mostly Cloudy,200,2013-05-18 16:45:00
11:53 AM,82.0,69.1,65,30.05,10.0,South,10.4,-,N/A,,Mostly Cloudy,190,2013-05-18 16:53:00
12:20 PM,84.2,69.8,62,30.06,10.0,SSW,9.2,16.1,N/A,,Mostly Cloudy,200,2013-05-18 17:20:00
12:53 PM,82.9,70.0,65,30.03,10.0,WSW,6.9,-,N/A,,Mostly Cloudy,240,2013-05-18 17:53:00
2:53 PM,86.0,70.0,59,30.00,10.0,South,9.2,-,N/A,,Scattered Clouds,170,2013-05-18 19:53:00
3:53 PM,86.0,70.0,59,29.99,10.0,SSW,6.9,-,N/A,,Mostly Cloudy,210,2013-05-18 20:53:00
4:53 PM,87.1,70.0,57,29.99,10.0,SSW,6.9,-,N/A,,Partly Cloudy,210,2013-05-18 21:53:00
5:53 PM,84.9,68.0,57,29.98,10.0,South,10.4,-,N/A,,Clear,190,2013-05-18 22:53:00
6:53 PM,84.0,70.0,63,29.98,10.0,South,6.9,-,N/A,,Clear,190,2013-05-18 23:53:00
7:53 PM,80.1,71.1,74,29.99,10.0,South,4.6,-,N/A,,Clear,180,2013-05-19 00:53:00
8:53 PM,75.9,71.1,85,29.99,10.0,SSE,4.6,-,N/A,,Clear,160,2013-05-19 01:53:00
9:53 PM,75.9,69.1,79,29.99,10.0,South,9.2,-,N/A,,Clear,180,2013-05-19 02:53:00
11:53 PM,72.0,68.0,87,29.98,10.0,South,5.8,-,N/A,,Clear,170,2013-05-19 04:53:00